Location: Newark
(39.5667°N, 8.9833°E)
Time: 07:14:47
(UTC+00:00)

Transit 2A - All Passes

Search period start: 23 October 2019 00:00
Search period end: 02 November 2019 00:00
Orbit: 600 x 958 km, 66.7° (Epoch: 23 October)

Date Brightness Start Highest point End Pass type
(mag) Time Alt. Az. Time Alt. Az. Time Alt. Az.
23 Oct - 02:17:03 10° N 02:20:52 29° NE 02:24:39 10° ESE visible
23 Oct - 04:00:17 10° NW 04:03:51 25° WSW 04:07:28 10° SSW visible
23 Oct - 16:55:24 10° S 17:00:21 34° ESE 17:04:55 10° NE visible
23 Oct - 18:38:41 10° WSW 18:43:30 32° NW 18:47:56 10° N visible
24 Oct - 01:43:22 10° N 01:46:35 20° NE 01:49:47 10° E night (unlit)
24 Oct - 03:25:48 10° NW 03:29:52 40° WSW 03:33:59 10° S visible
24 Oct - 16:22:06 10° SSE 16:26:21 23° ESE 16:30:19 10° ENE daylight
24 Oct - 18:04:04 10° SW 18:09:17 46° WNW 18:14:03 10° NNE visible
25 Oct - 01:09:58 10° NNE 01:12:14 14° NE 01:14:28 10° ENE night (unlit)
25 Oct - 02:51:31 10° NW 02:55:50 66° WSW 03:00:10 10° SSE night (unlit)
25 Oct - 15:49:21 10° SE 15:52:23 15° ESE 15:55:17 10° ENE daylight
25 Oct - 17:29:40 10° SW 17:35:09 68° WNW 17:40:05 10° NNE visible
25 Oct - 19:17:57 10° NW 19:19:05 11° NW 19:20:11 10° NNW visible
26 Oct - 02:17:23 10° NNW 02:21:44 77° ENE 02:26:07 10° SSE night (unlit)
26 Oct - 16:55:30 10° SSW 17:01:01 82° ESE 17:05:59 10° NNE visible
26 Oct - 18:41:43 10° W 18:44:40 15° NW 18:47:29 10° N visible
27 Oct - 01:43:22 10° NNW 01:47:36 48° ENE 01:51:50 10° SE night (unlit)
27 Oct - 03:27:53 10° WNW 03:30:16 15° WSW 03:32:41 10° SW night (unlit)
27 Oct - 16:21:34 10° SSW 16:26:56 55° ESE 16:31:48 10° NE daylight
27 Oct - 18:06:24 10° W 18:10:20 21° NW 18:14:01 10° N visible
28 Oct - 01:09:30 10° N 01:13:24 31° NE 01:17:17 10° ESE night (unlit)
28 Oct - 02:52:54 10° WNW 02:56:20 23° WSW 02:59:49 10° SSW night (unlit)
28 Oct - 15:47:52 10° S 15:52:53 36° ESE 15:57:28 10° NE daylight
28 Oct - 17:31:27 10° WSW 17:36:04 29° NW 17:40:19 10° N visible
29 Oct - 00:35:46 10° N 00:39:08 21° NE 00:42:29 10° E night (unlit)
29 Oct - 02:18:21 10° NW 02:22:21 36° WSW 02:26:24 10° S night (unlit)
29 Oct - 15:14:31 10° SSE 15:18:52 25° ESE 15:22:56 10° ENE daylight
29 Oct - 16:56:46 10° SW 17:01:51 42° WNW 17:06:29 10° NNE visible
30 Oct - 00:02:18 10° N 00:04:48 15° NE 00:07:17 10° E night (unlit)
30 Oct - 01:44:02 10° NW 01:48:19 60° WSW 01:52:40 10° SSE night (unlit)
30 Oct - 14:41:38 10° SE 14:44:54 16° ESE 14:48:00 10° ENE daylight
30 Oct - 16:22:19 10° SW 16:27:41 62° WNW 16:32:32 10° NNE daylight
30 Oct - 23:29:53 10° NE 23:30:24 10° NE 23:30:54 10° NE night (unlit)
31 Oct - 01:09:53 10° NNW 01:14:14 85° ENE 01:18:39 10° SSE night (unlit)
31 Oct - 14:10:27 10° ESE 14:10:58 10° ESE 14:11:29 10° E daylight
31 Oct - 15:48:06 10° SSW 15:53:33 89° ESE 15:58:28 10° NNE daylight
31 Oct - 17:34:42 10° WNW 17:37:16 14° NW 17:39:44 10° NNW visible
01 Nov - 00:35:51 10° NNW 00:40:06 53° ENE 00:44:25 10° SE night (unlit)
01 Nov - 02:20:40 10° WNW 02:22:45 13° WSW 02:24:50 10° SW night (unlit)
01 Nov - 15:14:07 10° SSW 15:19:28 60° ESE 15:24:19 10° NE daylight
01 Nov - 16:59:14 10° W 17:02:54 19° NW 17:06:22 10° N visible
